TimeMDT,TemperatureF,Dew PointF,Humidity,Sea Level PressureIn,VisibilityMPH,Wind Direction,Wind SpeedMPH,Gust SpeedMPH,PrecipitationIn,Events,Conditions,WindDirDegrees,DateUTC
12:53 AM,46.9,42.1,83,30.17,10.0,NE,3.5,-,N/A,,Clear,50,2013-07-27 06:53:00
1:53 AM,46.0,41.0,83,30.18,10.0,NE,3.5,-,N/A,,Clear,40,2013-07-27 07:53:00
2:53 AM,45.0,41.0,86,30.14,10.0,ENE,3.5,-,N/A,,Clear,60,2013-07-27 08:53:00
3:53 AM,45.0,41.0,86,30.13,10.0,NE,3.5,-,N/A,,Clear,50,2013-07-27 09:53:00
4:53 AM,44.1,41.0,89,30.13,10.0,NE,4.6,-,N/A,,Clear,40,2013-07-27 10:53:00
5:53 AM,45.0,41.0,86,30.14,10.0,NE,4.6,-,N/A,,Clear,50,2013-07-27 11:53:00
6:53 AM,48.0,43.0,83,30.12,10.0,ENE,5.8,-,N/A,,Clear,70,2013-07-27 12:53:00
7:53 AM,50.0,42.1,74,30.12,10.0,East,10.4,-,N/A,,Clear,90,2013-07-27 13:53:00
8:53 AM,52.0,43.0,71,30.13,10.0,ESE,10.4,-,N/A,,Clear,110,2013-07-27 14:53:00
9:53 AM,53.1,44.1,71,30.12,10.0,SSE,5.8,-,N/A,,Clear,150,2013-07-27 15:53:00
10:25 AM,53.6,44.6,72,30.23,10.0,Variable,5.8,-,N/A,,Mostly Cloudy,0,2013-07-27 16:25:00
10:53 AM,55.0,45.0,69,30.12,10.0,ESE,5.8,-,N/A,,Mostly Cloudy,110,2013-07-27 16:53:00
11:00 AM,55.4,44.6,67,30.23,10.0,ESE,4.6,-,N/A,,Scattered Clouds,120,2013-07-27 17:00:00
11:53 AM,55.9,46.0,69,30.10,10.0,SSE,6.9,-,N/A,,Scattered Clouds,150,2013-07-27 17:53:00
12:53 PM,59.0,46.9,64,30.09,10.0,ESE,6.9,-,N/A,,Partly Cloudy,120,2013-07-27 18:53:00
1:16 PM,60.8,46.4,59,30.19,10.0,SE,9.2,-,N/A,,Mostly Cloudy,130,2013-07-27 19:16:00
1:53 PM,61.0,48.0,62,30.07,10.0,ESE,9.2,-,N/A,,Mostly Cloudy,120,2013-07-27 19:53:00
2:53 PM,62.1,48.9,62,30.05,10.0,SE,6.9,-,N/A,,Overcast,140,2013-07-27 20:53:00
3:34 PM,60.8,48.2,63,30.16,10.0,Variable,5.8,-,N/A,,Scattered Clouds,0,2013-07-27 21:34:00
3:44 PM,60.8,48.2,63,30.15,10.0,South,6.9,-,N/A,,Mostly Cloudy,190,2013-07-27 21:44:00
3:53 PM,60.1,48.0,64,30.05,10.0,South,6.9,-,N/A,,Scattered Clouds,190,2013-07-27 21:53:00
4:41 PM,60.8,48.2,63,30.16,10.0,Variable,4.6,-,N/A,,Mostly Cloudy,0,2013-07-27 22:41:00
4:53 PM,60.1,48.9,67,30.05,10.0,South,5.8,-,N/A,,Mostly Cloudy,190,2013-07-27 22:53:00
5:02 PM,60.8,48.2,63,30.15,10.0,Variable,5.8,-,N/A,,Scattered Clouds,0,2013-07-27 23:02:00
5:53 PM,62.1,50.0,65,30.03,10.0,South,4.6,-,N/A,,Clear,180,2013-07-27 23:53:00
6:53 PM,60.1,50.0,69,30.03,10.0,South,4.6,-,N/A,,Clear,190,2013-07-28 00:53:00
7:53 PM,59.0,50.0,72,30.01,10.0,SE,3.5,-,N/A,,Clear,140,2013-07-28 01:53:00
8:53 PM,57.0,50.0,77,30.00,10.0,ESE,3.5,-,N/A,,Clear,110,2013-07-28 02:53:00
9:53 PM,55.0,48.9,80,30.01,10.0,Calm,Calm,-,N/A,,Clear,0,2013-07-28 03:53:00
10:53 PM,53.1,48.9,86,30.00,10.0,Calm,Calm,-,N/A,,Clear,0,2013-07-28 04:53:00
11:53 PM,51.1,48.9,92,29.99,10.0,Calm,Calm,-,N/A,,Clear,0,2013-07-28 05:53:00